Weather Roundup
Issued by NWS

Home | Current Version | Previous Version | Text Only | Print | Product List | Glossary On
Versions: 1 2 3 4 5 6 7 8 9 10 11 12 13 14 15 16 17 18 19 20 21 22 23 24 25 26 27 28 29 30 31 32 33 34 35 36 37 38 39 40 41 42 43 44 45 46 47 48 49 50
000
NZUS93 KARX 061659
HRRWXR

CURRENT HOURLY OBSERVATIONS ACROSS
MUCH OF THE UPPER MISSISSIPPI VALLEY
NATIONAL WEATHER SERVICE LA CROSSE WI
1100 AM CST FRI MAR 06 2015


...SOUTHEAST MINNESOTA...


CITY           SKY/WX    TMP DP  RH WIND       PRES   REMARKS
ROCHESTER      SUNNY     22  14  71 SW16      30.08F WCI   8
ROCHESTER/MAYO FAIR      24  10  57 SW7G17    30.09F WCI  15
WINONA         PTSUNNY   27  12  54 CALM      30.14F
AUSTIN         SUNNY     21  14  73 SW12      30.09F WCI   9
ALBERT LEA     SUNNY     28  18  64 SW8       30.08F WCI  20
DODGE CENTER   SUNNY     23  16  74 SW14      30.06F WCI  11
PRESTON        SUNNY     21  12  67 SW12G18   30.11S WCI   9
OWATONNA       SUNNY     30  18  59 SW9       30.07F WCI  22
FARIBAULT      SUNNY     28  18  64 S8        30.06F WCI  20
$$

...ELSEWHERE IN MINNESOTA...


CITY           SKY/WX    TMP DP  RH WIND       PRES   REMARKS
MINNEAPOLIS    SUNNY     29  12  49 SW8       30.06F WCI  21
INTNL FALLS    SUNNY     22   7  52 W14G21    29.95R WCI   9
DULUTH         MOSUNNY   23  10  57 W17       29.93S WCI   9
RED WING       FAIR      27  10  50 S8        30.08F WCI  18
REDWOOD FALLS  SUNNY     33  18  53 NW15      30.08R WCI  23
MANKATO        SUNNY     32  18  55 W9        30.07F WCI  24
FAIRMONT       SUNNY     37  21  52 W13       30.07S WCI  29
$$

...SOUTHWEST WISCONSIN...


CITY           SKY/WX    TMP DP  RH WIND       PRES   REMARKS
LA CROSSE      SUNNY     23  10  57 S12       30.15F WCI  12
PRAIRIE DU CHI SUNNY     23   8  52 S8        30.21F WCI  14
BOSCOBEL       MOSUNNY   24   9  52 SW12      30.21F WCI  13
LONE ROCK      NOT AVBL
PLATTEVILLE    SUNNY     18   8  65 S13       30.22F WCI   5
FORT MC COY    PTSUNNY   24   8  52 SW8       30.15F WCI  14
VIROQUA        FAIR      20   9  60 SW14      30.13F WCI   7
WIS DELLS      NOT AVBL
$$

...ELSEWHERE IN WISCONSIN...


CITY           SKY/WX    TMP DP  RH WIND       PRES   REMARKS
MILWAUKEE      PTSUNNY   20   5  52 SW21G28   30.27F WCI   4
MADISON        MOSUNNY   20   5  52 SW10      30.22F WCI   9
GREEN BAY      MOSUNNY   17   6  62 S16G23    30.16F WCI   2
EAU CLAIRE     NOT AVBL
BLACK RVR FLS  CLOUDY    24   7  47 SW7       30.12F WCI  16
MEDFORD        CLOUDY    14   4  64 S12G17    30.04F WCI   0
WAUSAU         CLOUDY    18   5  57 SW14      30.05F WCI   4
WIS RAPIDS     CLOUDY    22   6  50 SW14      30.11F WCI   9
MARSHFIELD     CLOUDY    21   8  57 SW13      30.07F WCI   9
RICE LAKE      SUNNY     19   7  59 S5        30.06F WCI  12
$$

...NORTHEAST IOWA...


CITY           SKY/WX    TMP DP  RH WIND       PRES   REMARKS
DECORAH        SUNNY     21  12  68 S13       30.13F WCI   9
MASON CITY     SUNNY     29  19  66 SW8       30.12F WCI  21
CHARLES CITY   SUNNY     23  16  74 S13       30.14F WCI  11
OELWEIN        SUNNY     21  14  73 S14       30.18F WCI   8
$$

...ELSEWHERE IN IOWA...


CITY           SKY/WX    TMP DP  RH WIND       PRES   REMARKS
DES MOINES     SUNNY     38  18  44 W10       30.19F WCI  31
IOWA CITY      SUNNY     27  16  63 SW12      30.25F WCI  17
FORT DODGE     SUNNY     34  21  60 SW6       30.15F WCI  29
$$

...NORTHERN ILLINOIS...


CITY           SKY/WX    TMP DP  RH WIND       PRES   REMARKS
CHICAGO-OHARE  PTSUNNY   19   7  59 S18       30.34F WCI   4
CHICAGO-MIDWAY MOSUNNY   19   6  57 S21       30.37F WCI   3
MOLINE         SUNNY     26  12  55 S13G25    30.26F WCI  15
ROCKFORD       PTSUNNY   18   8  65 S21       30.30F WCI   1
PEORIA         SUNNY     24  12  60 S18G24    30.33F WCI  10
$$

NOTE: "FAIR" INDICATES FEW OR NO CLOUDS BELOW 12,000 FEET WITH NO
SIGNIFICANT WEATHER AND/OR OBSTRUCTIONS TO VISIBILITY. WIND
SPEEDS ARE IN MILES-PER-HOUR.



USA.gov is the U.S. government's official web portal to all federal, state and local government web resources and services.